Time,TemperatureF,DewpointF,PressureIn,WindDirection,WindDirectionDegrees,WindSpeedMPH,WindSpeedGustMPH,Humidity,HourlyPrecipIn,Conditions,Clouds,dailyrainin,SoftwareType,DateUTC
2013-03-29 08:10:00,41.7,31.6,29.35,West,277,0.0,0.0,67,0.00,,OVC065,0.00,VWS V14.01,2013-03-29 12:10:00,
2013-03-29 08:11:00,41.7,31.6,29.35,West,277,0.0,0.0,67,0.00,,OVC120,0.00,VWS V14.01,2013-03-29 12:11:00,
2013-03-29 08:12:00,41.9,31.4,29.35,WNW,283,0.0,0.0,66,0.00,,OVC120,0.00,VWS V14.01,2013-03-29 12:12:00,
2013-03-29 08:13:00,41.9,31.4,29.35,WNW,283,0.0,0.0,66,0.00,,OVC120,0.00,VWS V14.01,2013-03-29 12:13:00,
2013-03-29 08:14:00,42.1,31.6,29.35,WNW,283,0.0,0.0,66,0.00,,OVC120,0.00,VWS V14.01,2013-03-29 12:14:00,
2013-03-29 08:15:00,42.1,31.6,29.35,WNW,283,0.0,0.0,66,0.00,,OVC120,0.00,VWS V14.01,2013-03-29 12:15:00,
2013-03-29 08:20:00,42.4,31.5,29.35,WNW,283,0.0,0.0,65,0.00,,OVC120,0.00,VWS V14.01,2013-03-29 12:20:00,
2013-03-29 08:25:00,42.6,30.9,29.35,NW,322,0.0,0.0,63,0.00,,OVC120,0.00,VWS V14.01,2013-03-29 12:25:00,
2013-03-29 08:30:00,42.8,30.3,29.35,WNW,302,0.0,0.0,61,0.00,,OVC120,0.00,VWS V14.01,2013-03-29 12:30:00,
2013-03-29 08:35:00,43.2,29.8,29.35,WNW,289,0.0,0.0,59,0.00,,OVC120,0.00,VWS V14.01,2013-03-29 12:35:00,
2013-03-29 08:40:00,43.5,29.3,29.35,NW,304,0.0,2.2,57,0.00,,OVC120,0.00,VWS V14.01,2013-03-29 12:40:00,
2013-03-29 08:45:00,43.9,29.2,29.35,WSW,244,6.3,6.3,56,0.00,,OVC120,0.00,VWS V14.01,2013-03-29 12:45:00,
2013-03-29 08:50:00,44.4,29.7,29.35,NNW,334,4.5,4.5,56,0.00,,OVC120,0.00,VWS V14.01,2013-03-29 12:50:00,
2013-03-29 08:55:00,45.0,29.8,29.35,North,5,4.5,4.5,55,0.00,,OVC120,0.00,VWS V14.01,2013-03-29 12:55:00,
2013-03-29 09:00:00,45.5,29.8,29.35,NE,53,0.0,0.0,54,0.00,,OVC120,0.00,VWS V14.01,2013-03-29 13:00:00,
2013-03-29 09:05:00,45.7,29.5,29.35,NW,310,7.2,7.2,53,0.00,,OVC120,0.00,VWS V14.01,2013-03-29 13:05:00,
2013-03-29 09:10:00,45.9,28.8,29.35,WSW,240,0.0,0.0,51,0.00,,OVC120,0.00,VWS V14.01,2013-03-29 13:10:00,
2013-03-29 09:15:00,46.0,29.4,29.35,NW,321,6.3,6.3,52,0.00,,OVC120,0.00,VWS V14.01,2013-03-29 13:15:00,
2013-03-29 09:20:00,46.2,28.6,29.35,WNW,303,4.5,4.5,50,0.00,,OVC120,0.00,VWS V14.01,2013-03-29 13:20:00,
2013-03-29 09:25:00,46.2,28.6,29.35,West,259,5.4,5.4,50,0.00,,SCT120,0.00,VWS V14.01,2013-03-29 13:25:00,
2013-03-29 09:30:00,46.4,28.8,29.35,NW,305,0.0,0.0,50,0.00,,SCT120,0.00,VWS V14.01,2013-03-29 13:30:00,
2013-03-29 09:35:00,46.6,29.0,29.35,WNW,292,8.1,8.1,50,0.00,,SCT120,0.00,VWS V14.01,2013-03-29 13:35:00,
2013-03-29 09:40:00,46.8,28.6,29.35,NNW,335,7.2,7.2,49,0.00,,SCT120,0.00,VWS V14.01,2013-03-29 13:40:00,
2013-03-29 09:45:00,46.9,28.3,29.35,West,279,9.8,9.8,48,0.00,,SCT120,0.00,VWS V14.01,2013-03-29 13:45:00,
2013-03-29 09:50:00,47.1,28.5,29.35,West,262,0.0,3.1,48,0.00,,SCT120,0.00,VWS V14.01,2013-03-29 13:50:00,
2013-03-29 09:55:00,47.3,28.1,29.35,East,89,5.4,5.4,47,0.00,,SCT120,0.00,VWS V14.01,2013-03-29 13:55:00,
2013-03-29 10:00:00,47.7,28.4,29.35,West,280,0.0,0.0,47,0.00,,SCT120,0.00,VWS V14.01,2013-03-29 14:00:00,
2013-03-29 10:05:00,48.2,28.4,29.35,WSW,243,0.0,0.0,46,0.00,,CLR,0.00,VWS V14.01,2013-03-29 14:05:00,
2013-03-29 10:10:00,48.6,28.7,29.35,NW,320,0.0,0.0,46,0.00,,CLR,0.00,VWS V14.01,2013-03-29 14:10:00,
2013-03-29 10:15:00,48.9,28.0,29.35,SW,217,7.2,7.2,44,0.00,,CLR,0.00,VWS V14.01,2013-03-29 14:15:00,
2013-03-29 10:20:00,49.1,28.1,29.35,WSW,245,7.2,7.2,44,0.00,,CLR,0.00,VWS V14.01,2013-03-29 14:20:00,
2013-03-29 10:25:00,49.6,28.6,29.35,West,269,0.0,2.7,44,0.00,,CLR,0.00,VWS V14.01,2013-03-29 14:25:00,
2013-03-29 10:30:00,50.2,28.6,29.35,NW,306,4.5,4.5,43,0.00,,CLR,0.00,VWS V14.01,2013-03-29 14:30:00,
2013-03-29 10:35:00,50.7,28.5,29.35,NNW,344,4.5,4.5,42,0.00,,CLR,0.00,VWS V14.01,2013-03-29 14:35:00,
2013-03-29 10:40:00,51.1,28.2,29.35,NW,319,0.0,3.6,41,0.00,,CLR,0.00,VWS V14.01,2013-03-29 14:40:00,
2013-03-29 10:45:00,51.4,28.5,29.35,North,357,0.0,0.0,41,0.00,,CLR,0.00,VWS V14.01,2013-03-29 14:45:00,
2013-03-29 10:50:00,52.0,27.8,29.35,West,263,10.7,10.7,39,0.00,,CLR,0.00,VWS V14.01,2013-03-29 14:50:00,
2013-03-29 10:55:00,52.2,28.0,29.35,WNW,300,5.4,5.4,39,0.00,,CLR,0.00,VWS V14.01,2013-03-29 14:55:00,
2013-03-29 11:00:00,52.5,28.3,29.35,North,353,5.4,5.4,39,0.00,,CLR,0.00,VWS V14.01,2013-03-29 15:00:00,
2013-03-29 11:05:00,53.1,28.1,29.35,NNE,28,5.4,6.7,38,0.00,,CLR,0.00,VWS V14.01,2013-03-29 15:05:00,
2013-03-29 11:10:00,53.4,28.5,29.35,NE,47,5.4,5.4,38,0.00,,CLR,0.00,VWS V14.01,2013-03-29 15:10:00,
2013-03-29 11:15:00,53.6,28.0,29.35,NNE,32,5.4,5.4,37,0.00,,CLR,0.00,VWS V14.01,2013-03-29 15:15:00,
2013-03-29 11:20:00,53.8,28.1,29.35,NNW,333,7.2,7.2,37,0.00,,CLR,0.00,VWS V14.01,2013-03-29 15:20:00,
2013-03-29 11:25:00,53.8,27.5,29.35,North,8,4.5,4.5,36,0.00,,CLR,0.00,VWS V14.01,2013-03-29 15:25:00,
2013-03-29 11:30:00,53.4,27.8,29.35,NNW,333,4.5,4.5,37,0.00,,CLR,0.00,VWS V14.01,2013-03-29 15:30:00,
2013-03-29 11:35:00,53.6,27.3,29.35,NE,35,5.4,5.4,36,0.00,,CLR,0.00,VWS V14.01,2013-03-29 15:35:00,
2013-03-29 11:40:00,53.1,27.5,29.35,NNW,342,4.5,4.5,37,0.00,,CLR,0.00,VWS V14.01,2013-03-29 15:40:00,
2013-03-29 11:45:00,53.6,27.3,29.35,WNW,293,0.0,2.2,36,0.00,,CLR,0.00,VWS V14.01,2013-03-29 15:45:00,
2013-03-29 11:50:00,54.1,27.8,29.35,WSW,258,6.3,6.3,36,0.00,,CLR,0.00,VWS V14.01,2013-03-29 15:50:00,
2013-03-29 11:55:00,53.6,27.3,29.35,WSW,256,0.0,0.0,36,0.00,,CLR,0.00,VWS V14.01,2013-03-29 15:55:00,
2013-03-29 12:00:00,53.8,27.5,29.35,NW,323,0.0,2.2,36,0.00,,CLR,0.00,VWS V14.01,2013-03-29 16:00:00,
2013-03-29 12:05:00,53.6,27.3,29.35,North,357,0.0,0.0,36,0.00,,CLR,0.00,VWS V14.01,2013-03-29 16:05:00,
2013-03-29 12:10:00,53.4,27.1,29.35,NW,322,0.0,0.0,36,0.00,,CLR,0.00,VWS V14.01,2013-03-29 16:10:00,
2013-03-29 12:15:00,54.1,27.8,29.35,NW,312,0.0,0.0,36,0.00,,CLR,0.00,VWS V14.01,2013-03-29 16:15:00,
2013-03-29 12:20:00,55.0,28.6,29.32,West,265,11.6,11.6,36,0.00,,CLR,0.00,VWS V14.01,2013-03-29 16:20:00,
2013-03-29 12:25:00,54.5,27.4,29.32,WNW,291,11.6,11.6,35,0.00,,CLR,0.00,VWS V14.01,2013-03-29 16:25:00,
2013-03-29 12:30:00,53.6,26.6,29.32,NE,40,7.2,7.2,35,0.00,,CLR,0.00,VWS V14.01,2013-03-29 16:30:00,
2013-03-29 12:35:00,53.6,26.6,29.35,WNW,292,4.5,4.5,35,0.00,,CLR,0.00,VWS V14.01,2013-03-29 16:35:00,
2013-03-29 12:40:00,54.3,28.0,29.35,NE,46,10.7,10.7,36,0.00,,CLR,0.00,VWS V14.01,2013-03-29 16:40:00,
2013-03-29 12:45:00,54.7,27.6,29.35,NNW,343,0.0,2.2,35,0.00,,CLR,0.00,VWS V14.01,2013-03-29 16:45:00,
2013-03-29 12:50:00,54.3,27.3,29.35,West,270,6.3,6.3,35,0.00,,CLR,0.00,VWS V14.01,2013-03-29 16:50:00,
2013-03-29 12:55:00,53.4,27.1,29.35,NNW,343,6.3,6.3,36,0.00,,CLR,0.00,VWS V14.01,2013-03-29 16:55:00,
2013-03-29 13:00:00,52.7,26.5,29.35,NW,317,5.4,5.4,36,0.00,,CLR,0.00,VWS V14.01,2013-03-29 17:00:00,
2013-03-29 13:05:00,51.6,25.6,29.35,NNE,27,5.4,5.4,36,0.00,,CLR,0.00,VWS V14.01,2013-03-29 17:05:00,
2013-03-29 13:10:00,50.9,25.6,29.35,NNE,30,0.0,0.0,37,0.00,,CLR,0.00,VWS V14.01,2013-03-29 17:10:00,
2013-03-29 13:15:00,50.7,25.4,29.35,North,2,0.0,0.0,37,0.00,,CLR,0.00,VWS V14.01,2013-03-29 17:15:00,
2013-03-29 13:20:00,50.4,25.7,29.35,North,2,0.0,0.0,38,0.00,,CLR,0.00,VWS V14.01,2013-03-29 17:20:00,
2013-03-29 13:25:00,50.2,25.6,29.35,NNE,22,0.0,0.0,38,0.00,,CLR,0.00,VWS V14.01,2013-03-29 17:25:00,
2013-03-29 13:30:00,50.0,25.4,29.35,NNE,15,0.0,0.0,38,0.00,,CLR,0.00,VWS V14.01,2013-03-29 17:30:00,
2013-03-29 13:35:00,50.0,25.4,29.35,NNE,15,0.0,0.0,38,0.00,,CLR,0.00,VWS V14.01,2013-03-29 17:35:00,
2013-03-29 13:40:00,50.2,25.6,29.35,NNW,334,0.0,0.0,38,0.00,,CLR,0.00,VWS V14.01,2013-03-29 17:40:00,
2013-03-29 13:45:00,51.1,26.4,29.35,NNE,22,5.4,5.4,38,0.00,,CLR,0.00,VWS V14.01,2013-03-29 17:45:00,
2013-03-29 13:50:00,52.3,26.9,29.32,NNE,22,0.0,0.0,37,0.00,,CLR,0.00,VWS V14.01,2013-03-29 17:50:00,
2013-03-29 13:55:00,53.2,27.7,29.32,North,357,0.0,0.0,37,0.00,,CLR,0.00,VWS V14.01,2013-03-29 17:55:00,
2013-03-29 14:00:00,53.4,27.8,29.32,NE,49,0.0,0.0,37,0.00,,CLR,0.00,VWS V14.01,2013-03-29 18:00:00,
2013-03-29 14:05:00,52.9,26.7,29.32,North,9,0.0,0.0,36,0.00,,CLR,0.00,VWS V14.01,2013-03-29 18:05:00,
2013-03-29 14:10:00,52.7,26.5,29.32,NNW,327,0.0,0.0,36,0.00,,CLR,0.00,VWS V14.01,2013-03-29 18:10:00,
2013-03-29 14:15:00,52.5,26.4,29.32,WNW,292,0.0,0.0,36,0.00,,CLR,0.00,VWS V14.01,2013-03-29 18:15:00,
2013-03-29 14:20:00,52.5,26.4,29.32,NNE,16,0.0,0.0,36,0.00,,CLR,0.00,VWS V14.01,2013-03-29 18:20:00,
2013-03-29 14:25:00,52.7,26.5,29.32,North,357,5.4,5.4,36,0.00,,CLR,0.00,VWS V14.01,2013-03-29 18:25:00,
2013-03-29 14:30:00,52.9,26.7,29.32,NW,318,0.0,0.0,36,0.00,,CLR,0.00,VWS V14.01,2013-03-29 18:30:00,
2013-03-29 14:35:00,53.1,26.8,29.32,NE,37,6.3,6.3,36,0.00,,BKN090,0.00,VWS V14.01,2013-03-29 18:35:00,
2013-03-29 14:40:00,52.9,26.7,29.32,NNE,29,0.0,0.0,36,0.00,,BKN090,0.00,VWS V14.01,2013-03-29 18:40:00,
2013-03-29 14:45:00,52.5,26.4,29.32,North,357,0.0,0.0,36,0.00,,BKN090,0.00,VWS V14.01,2013-03-29 18:45:00,
2013-03-29 14:50:00,52.0,25.9,29.32,NNW,331,0.0,3.1,36,0.00,,BKN090,0.00,VWS V14.01,2013-03-29 18:50:00,
2013-03-29 14:55:00,51.3,25.9,29.32,NNE,30,0.0,3.1,37,0.00,,BKN090,0.00,VWS V14.01,2013-03-29 18:55:00,
2013-03-29 15:00:00,50.7,25.4,29.32,NNW,331,0.0,0.0,37,0.00,,BKN090,0.00,VWS V14.01,2013-03-29 19:00:00,
2013-03-29 15:05:00,50.5,25.2,29.32,NNE,25,0.0,0.0,37,0.00,,OVC095,0.00,VWS V14.01,2013-03-29 19:05:00,
2013-03-29 15:10:00,50.5,25.2,29.32,NNW,334,0.0,0.0,37,0.00,,OVC095,0.00,VWS V14.01,2013-03-29 19:10:00,
2013-03-29 15:15:00,50.7,25.4,29.32,NNW,330,0.0,0.0,37,0.00,,OVC095,0.00,VWS V14.01,2013-03-29 19:15:00,
2013-03-29 15:20:00,50.9,25.6,29.32,NW,320,4.5,4.5,37,0.00,,OVC095,0.00,VWS V14.01,2013-03-29 19:20:00,
2013-03-29 15:25:00,51.1,25.7,29.32,North,353,0.0,3.1,37,0.00,,OVC095,0.00,VWS V14.01,2013-03-29 19:25:00,
2013-03-29 15:30:00,51.3,25.9,29.32,WNW,297,5.4,5.4,37,0.00,,OVC095,0.00,VWS V14.01,2013-03-29 19:30:00,
2013-03-29 15:35:00,51.4,26.0,29.32,South,171,0.0,0.0,37,0.00,,OVC095,0.00,VWS V14.01,2013-03-29 19:35:00,
2013-03-29 15:40:00,51.3,25.2,29.32,NW,326,9.8,9.8,36,0.00,,OVC095,0.00,VWS V14.01,2013-03-29 19:40:00,
2013-03-29 15:45:00,50.9,24.9,29.32,SSW,200,0.0,3.6,36,0.00,,OVC095,0.00,VWS V14.01,2013-03-29 19:45:00,
2013-03-29 15:50:00,50.7,24.8,29.32,WNW,287,7.2,7.2,36,0.00,,OVC095,0.00,VWS V14.01,2013-03-29 19:50:00,
2013-03-29 15:55:00,50.5,24.6,29.32,West,259,0.0,0.0,36,0.00,,OVC095,0.00,VWS V14.01,2013-03-29 19:55:00,
2013-03-29 16:00:00,50.5,24.6,29.32,West,271,4.5,4.5,36,0.00,,OVC095,0.00,VWS V14.01,2013-03-29 20:00:00,
2013-03-29 16:05:00,50.7,24.8,29.32,WNW,297,6.3,6.3,36,0.00,,SCT095,0.00,VWS V14.01,2013-03-29 20:05:00,
2013-03-29 16:10:00,51.1,25.1,29.32,West,264,0.0,3.6,36,0.00,,SCT095,0.00,VWS V14.01,2013-03-29 20:10:00,
2013-03-29 16:15:00,51.4,25.4,29.32,West,270,0.0,2.7,36,0.00,,SCT095,0.00,VWS V14.01,2013-03-29 20:15:00,
2013-03-29 16:20:00,51.6,25.6,29.32,WNW,303,5.4,5.4,36,0.00,,SCT095,0.00,VWS V14.01,2013-03-29 20:20:00,
2013-03-29 16:25:00,51.8,25.7,29.32,WNW,295,0.0,0.0,36,0.00,,SCT095,0.00,VWS V14.01,2013-03-29 20:25:00,
2013-03-29 16:30:00,51.8,25.7,29.32,NW,313,4.5,4.5,36,0.00,,SCT095,0.00,VWS V14.01,2013-03-29 20:30:00,
2013-03-29 16:35:00,51.4,25.4,29.32,WNW,296,5.4,5.4,36,0.00,,SCT095,0.00,VWS V14.01,2013-03-29 20:35:00,
2013-03-29 16:40:00,51.3,25.2,29.32,NW,310,0.0,0.0,36,0.00,,SCT095,0.00,VWS V14.01,2013-03-29 20:40:00,
2013-03-29 16:45:00,51.1,25.1,29.32,NW,322,5.4,5.4,36,0.00,,SCT095,0.00,VWS V14.01,2013-03-29 20:45:00,
2013-03-29 16:50:00,51.1,25.1,29.32,West,269,8.1,8.1,36,0.00,,SCT095,0.00,VWS V14.01,2013-03-29 20:50:00,
2013-03-29 16:55:00,50.7,24.1,29.32,WNW,287,4.5,4.5,35,0.00,,SCT095,0.00,VWS V14.01,2013-03-29 20:55:00,
2013-03-29 17:00:00,50.7,24.8,29.32,NW,315,0.0,0.0,36,0.00,,SCT095,0.00,VWS V14.01,2013-03-29 21:00:00,
2013-03-29 17:05:00,50.5,24.6,29.32,NW,326,0.0,2.7,36,0.00,,BKN100,0.00,VWS V14.01,2013-03-29 21:05:00,
2013-03-29 17:10:00,50.5,24.6,29.32,North,0,0.0,0.0,36,0.00,,BKN100,0.00,VWS V14.01,2013-03-29 21:10:00,
2013-03-29 17:15:00,50.2,24.3,29.32,NNE,14,8.1,8.1,36,0.00,,BKN100,0.00,VWS V14.01,2013-03-29 21:15:00,
2013-03-29 17:20:00,50.0,24.1,29.32,North,0,0.0,0.0,36,0.00,,BKN100,0.00,VWS V14.01,2013-03-29 21:20:00,
2013-03-29 17:25:00,49.8,24.6,29.32,North,0,0.0,0.0,37,0.00,,BKN100,0.00,VWS V14.01,2013-03-29 21:25:00,
2013-03-29 17:30:00,49.6,24.5,29.32,NW,316,0.0,0.0,37,0.00,,BKN100,0.00,VWS V14.01,2013-03-29 21:30:00,
2013-03-29 17:35:00,49.6,24.5,29.35,West,268,0.0,0.0,37,0.00,,BKN100,0.00,VWS V14.01,2013-03-29 21:35:00,
2013-03-29 17:40:00,49.6,24.5,29.35,NW,314,0.0,0.0,37,0.00,,BKN100,0.00,VWS V14.01,2013-03-29 21:40:00,
2013-03-29 17:45:00,49.6,24.5,29.35,NW,314,0.0,0.0,37,0.00,,BKN100,0.00,VWS V14.01,2013-03-29 21:45:00,
2013-03-29 17:50:00,49.6,24.5,29.35,NW,314,0.0,0.0,37,0.00,,BKN100,0.00,VWS V14.01,2013-03-29 21:50:00,
2013-03-29 17:55:00,49.5,24.3,29.35,WNW,298,0.0,0.0,37,0.00,,BKN100,0.00,VWS V14.01,2013-03-29 21:55:00,
2013-03-29 18:00:00,49.5,24.3,29.35,WNW,300,0.0,0.0,37,0.00,,BKN100,0.00,VWS V14.01,2013-03-29 22:00:00,
2013-03-29 18:05:00,49.3,24.1,29.35,NNE,22,0.0,0.0,37,0.00,,OVC095,0.00,VWS V14.01,2013-03-29 22:05:00,
2013-03-29 18:10:00,49.1,24.0,29.35,NNW,329,0.0,0.0,37,0.00,,OVC095,0.00,VWS V14.01,2013-03-29 22:10:00,
2013-03-29 18:15:00,48.7,23.6,29.35,NW,322,0.0,0.0,37,0.00,,OVC095,0.00,VWS V14.01,2013-03-29 22:15:00,
2013-03-29 18:20:00,48.6,23.5,29.35,NNW,342,0.0,0.0,37,0.00,,OVC095,0.00,VWS V14.01,2013-03-29 22:20:00,
2013-03-29 18:25:00,48.4,23.3,29.35,North,9,0.0,0.0,37,0.00,,OVC095,0.00,VWS V14.01,2013-03-29 22:25:00,
2013-03-29 18:30:00,48.2,23.2,29.35,West,264,7.2,7.2,37,0.00,,OVC095,0.00,VWS V14.01,2013-03-29 22:30:00,
2013-03-29 18:35:00,48.0,23.0,29.35,NNE,12,0.0,0.0,37,0.00,,OVC095,0.00,VWS V14.01,2013-03-29 22:35:00,
2013-03-29 18:40:00,47.8,23.5,29.35,NNE,15,0.0,0.0,38,0.00,,OVC095,0.00,VWS V14.01,2013-03-29 22:40:00,
2013-03-29 18:45:00,47.7,23.3,29.35,NNW,331,0.0,0.0,38,0.00,,OVC095,0.00,VWS V14.01,2013-03-29 22:45:00,
2013-03-29 18:50:00,47.3,23.0,29.35,NNW,339,0.0,2.2,38,0.00,,OVC095,0.00,VWS V14.01,2013-03-29 22:50:00,
2013-03-29 18:55:00,47.1,22.8,29.35,NNW,340,0.0,0.0,38,0.00,,OVC095,0.00,VWS V14.01,2013-03-29 22:55:00,
2013-03-29 19:00:00,47.1,22.8,29.35,North,357,0.0,0.0,38,0.00,,OVC095,0.00,VWS V14.01,2013-03-29 23:00:00,
2013-03-29 19:05:00,46.9,22.7,29.35,NNE,26,0.0,0.0,38,0.00,,OVC095,0.00,VWS V14.01,2013-03-29 23:05:00,
2013-03-29 19:10:00,46.8,22.5,29.35,SW,234,0.0,0.0,38,0.00,,OVC095,0.00,VWS V14.01,2013-03-29 23:10:00,
2013-03-29 19:15:00,46.6,22.4,29.35,NNW,348,0.0,0.0,38,0.00,,OVC095,0.00,VWS V14.01,2013-03-29 23:15:00,
2013-03-29 19:20:00,46.2,22.0,29.35,North,7,0.0,0.0,38,0.00,,OVC095,0.00,VWS V14.01,2013-03-29 23:20:00,
2013-03-29 19:25:00,46.0,22.5,29.35,NNW,329,0.0,0.0,39,0.00,,OVC095,0.00,VWS V14.01,2013-03-29 23:25:00,
2013-03-29 19:30:00,46.0,22.5,29.35,NNW,335,0.0,0.0,39,0.00,,OVC095,0.00,VWS V14.01,2013-03-29 23:30:00,
2013-03-29 19:35:00,45.9,22.3,29.35,NNW,340,0.0,0.0,39,0.00,,OVC095,0.00,VWS V14.01,2013-03-29 23:35:00,
2013-03-29 19:40:00,45.7,22.2,29.35,WSW,257,0.0,0.0,39,0.00,,OVC095,0.00,VWS V14.01,2013-03-29 23:40:00,
2013-03-29 19:45:00,45.5,22.0,29.35,NW,308,5.4,5.4,39,0.00,,OVC095,0.00,VWS V14.01,2013-03-29 23:45:00,
2013-03-29 19:50:00,45.3,21.8,29.38,West,260,0.0,0.0,39,0.00,,OVC095,0.00,VWS V14.01,2013-03-29 23:50:00,
2013-03-29 19:55:00,45.3,21.8,29.38,North,9,0.0,0.0,39,0.00,,OVC095,0.00,VWS V14.01,2013-03-29 23:55:00,
2013-03-29 20:00:00,45.1,21.7,29.38,NNE,14,0.0,0.0,39,0.00,,OVC095,0.00,VWS V14.01,2013-03-30 00:00:00,
2013-03-29 20:05:00,44.8,21.4,29.38,NW,322,0.0,0.0,39,0.00,,OVC095,0.00,VWS V14.01,2013-03-30 00:05:00,
2013-03-29 20:10:00,44.6,21.8,29.38,NW,320,0.0,0.0,40,0.00,,OVC095,0.00,VWS V14.01,2013-03-30 00:10:00,
2013-03-29 20:15:00,44.4,21.6,29.38,NW,326,0.0,0.0,40,0.00,,BKN095,0.00,VWS V14.01,2013-03-30 00:15:00,
2013-03-29 20:20:00,44.4,21.6,29.38,NW,326,0.0,0.0,40,0.00,,BKN095,0.00,VWS V14.01,2013-03-30 00:20:00,
2013-03-29 20:25:00,44.2,21.5,29.38,NNW,341,0.0,0.0,40,0.00,,BKN095,0.00,VWS V14.01,2013-03-30 00:25:00,
2013-03-29 20:30:00,44.1,21.3,29.38,NNW,334,0.0,0.0,40,0.00,,BKN095,0.00,VWS V14.01,2013-03-30 00:30:00,
2013-03-29 20:35:00,44.1,21.3,29.38,NW,326,0.0,0.0,40,0.00,,BKN095,0.00,VWS V14.01,2013-03-30 00:35:00,
2013-03-29 20:40:00,44.1,21.3,29.38,NW,326,0.0,0.0,40,0.00,,BKN095,0.00,VWS V14.01,2013-03-30 00:40:00,
2013-03-29 20:45:00,43.9,21.7,29.38,NW,326,0.0,0.0,41,0.00,,BKN095,0.00,VWS V14.01,2013-03-30 00:45:00,
2013-03-29 20:50:00,43.5,21.4,29.38,NW,326,0.0,0.0,41,0.00,,BKN095,0.00,VWS V14.01,2013-03-30 00:50:00,
2013-03-29 20:55:00,43.3,21.2,29.38,NW,326,0.0,0.0,41,0.00,,BKN095,0.00,VWS V14.01,2013-03-30 00:55:00,
2013-03-29 21:00:00,43.0,20.9,29.38,NW,326,0.0,0.0,41,0.00,,BKN095,0.00,VWS V14.01,2013-03-30 01:00:00,
2013-03-29 21:05:00,42.6,21.1,29.38,NW,326,0.0,0.0,42,0.00,,BKN095,0.00,VWS V14.01,2013-03-30 01:05:00,
2013-03-29 21:10:00,42.3,21.4,29.38,NW,326,0.0,0.0,43,0.00,,BKN095,0.00,VWS V14.01,2013-03-30 01:10:00,
2013-03-29 21:15:00,41.7,21.4,29.38,NW,326,0.0,0.0,44,0.00,,CLR,0.00,VWS V14.01,2013-03-30 01:15:00,
2013-03-29 21:20:00,41.5,21.3,29.38,North,6,0.0,0.0,44,0.00,,CLR,0.00,VWS V14.01,2013-03-30 01:20:00,
2013-03-29 21:25:00,41.4,21.6,29.38,North,6,0.0,0.0,45,0.00,,CLR,0.00,VWS V14.01,2013-03-30 01:25:00,
2013-03-29 21:30:00,41.2,21.5,29.38,North,6,0.0,0.0,45,0.00,,CLR,0.00,VWS V14.01,2013-03-30 01:30:00,
2013-03-29 21:35:00,40.8,21.1,29.38,North,6,0.0,0.0,45,0.00,,CLR,0.00,VWS V14.01,2013-03-30 01:35:00,
2013-03-29 21:40:00,40.5,21.8,29.38,North,6,0.0,0.0,47,0.00,,CLR,0.00,VWS V14.01,2013-03-30 01:40:00,
2013-03-29 21:45:00,40.1,22.0,29.38,North,6,0.0,0.0,48,0.00,,CLR,0.00,VWS V14.01,2013-03-30 01:45:00,
2013-03-29 21:50:00,39.9,22.3,29.38,NNW,329,0.0,0.0,49,0.00,,CLR,0.00,VWS V14.01,2013-03-30 01:50:00,
2013-03-29 21:55:00,39.4,21.8,29.38,SW,226,0.0,0.0,49,0.00,,CLR,0.00,VWS V14.01,2013-03-30 01:55:00,
2013-03-29 22:00:00,39.2,22.1,29.38,WSW,243,0.0,0.0,50,0.00,,CLR,0.00,VWS V14.01,2013-03-30 02:00:00,
2013-03-29 22:05:00,39.2,22.1,29.38,NW,309,0.0,0.0,50,0.00,,CLR,0.00,VWS V14.01,2013-03-30 02:05:00,
2013-03-29 22:10:00,39.2,22.1,29.38,NW,308,0.0,0.0,50,0.00,,CLR,0.00,VWS V14.01,2013-03-30 02:10:00,
2013-03-29 22:15:00,39.0,22.4,29.38,NW,308,0.0,0.0,51,0.00,,CLR,0.00,VWS V14.01,2013-03-30 02:15:00,
2013-03-29 22:20:00,38.7,22.1,29.38,NW,308,0.0,0.0,51,0.00,,CLR,0.00,VWS V14.01,2013-03-30 02:20:00,
2013-03-29 22:25:00,38.5,21.9,29.38,NW,308,0.0,0.0,51,0.00,,CLR,0.00,VWS V14.01,2013-03-30 02:25:00,
2013-03-29 22:30:00,37.9,21.9,29.38,WSW,255,0.0,0.0,52,0.00,,CLR,0.00,VWS V14.01,2013-03-30 02:30:00,
2013-03-29 22:35:00,37.2,22.1,29.38,WSW,253,0.0,0.0,54,0.00,,CLR,0.00,VWS V14.01,2013-03-30 02:35:00,
2013-03-29 22:40:00,36.7,21.6,29.38,WSW,248,0.0,0.0,54,0.00,,CLR,0.00,VWS V14.01,2013-03-30 02:40:00,
2013-03-29 22:45:00,36.7,22.0,29.38,WSW,248,0.0,0.0,55,0.00,,CLR,0.00,VWS V14.01,2013-03-30 02:45:00,
2013-03-29 22:50:00,36.7,22.5,29.38,WSW,249,0.0,0.0,56,0.00,,CLR,0.00,VWS V14.01,2013-03-30 02:50:00,
2013-03-29 22:55:00,36.7,22.5,29.38,WSW,249,0.0,0.0,56,0.00,,CLR,0.00,VWS V14.01,2013-03-30 02:55:00,
2013-03-29 23:00:00,36.5,22.3,29.38,WSW,239,0.0,0.0,56,0.00,,CLR,0.00,VWS V14.01,2013-03-30 03:00:00,
2013-03-29 23:05:00,36.3,22.1,29.38,WSW,239,0.0,0.0,56,0.00,,CLR,0.00,VWS V14.01,2013-03-30 03:05:00,
2013-03-29 23:10:00,36.3,22.6,29.38,WSW,239,0.0,0.0,57,0.00,,CLR,0.00,VWS V14.01,2013-03-30 03:10:00,
2013-03-29 23:15:00,35.8,22.5,29.38,WSW,256,0.0,0.0,58,0.00,,CLR,0.00,VWS V14.01,2013-03-30 03:15:00,
2013-03-29 23:20:00,35.2,22.8,29.38,West,271,0.0,0.0,60,0.00,,CLR,0.00,VWS V14.01,2013-03-30 03:20:00,
2013-03-29 23:25:00,34.7,22.6,29.38,West,268,0.0,0.0,61,0.00,,CLR,0.00,VWS V14.01,2013-03-30 03:25:00,
2013-03-29 23:30:00,34.3,23.4,29.38,West,268,0.0,0.0,64,0.00,,CLR,0.00,VWS V14.01,2013-03-30 03:30:00,
2013-03-29 23:35:00,34.2,23.6,29.38,West,266,0.0,0.0,65,0.00,,CLR,0.00,VWS V14.01,2013-03-30 03:35:00,
2013-03-29 23:40:00,34.0,24.2,29.38,WSW,256,0.0,0.0,67,0.00,,CLR,0.00,VWS V14.01,2013-03-30 03:40:00,
2013-03-29 23:45:00,34.2,24.7,29.38,West,259,0.0,0.0,68,0.00,,CLR,0.00,VWS V14.01,2013-03-30 03:45:00,
2013-03-29 23:50:00,34.3,24.9,29.38,WSW,252,0.0,0.0,68,0.00,,CLR,0.00,VWS V14.01,2013-03-30 03:50:00,
2013-03-29 23:55:00,34.3,24.9,29.38,WSW,248,0.0,0.0,68,0.00,,CLR,0.00,VWS V14.01,2013-03-30 03:55:00,